Regional Weather Roundup
Issued by NWS Sioux Falls, SD

Home | Current Version | Previous Version | Text Only | Print | Product List | Glossary On
Versions: 1 2 3 4 5 6 7 8 9 10 11 12 13 14 15 16 17 18 19 20 21 22 23 24 25 26 27 28 29 30 31 32 33 34 35 36 37 38 39 40 41 42 43 44 45 46 47 48 49 50
170
ASUS43 KFSD 100102
RWRFSD

WEATHER ROUNDUP FOR SE SOUTH DAKOTA/SW MINNESOTA/NW IOWA
NATIONAL WEATHER SERVICE SIOUX FALLS SD
700 PM CST TUE FEB 09 2016

NOTE: "FAIR" INDICATES FEW OR NO CLOUDS BELOW 12,000 FEET WITH NO
SIGNIFICANT WEATHER AND OR OBSTRUCTIONS TO VISIBILITY.


SDZ038>040-050-052>070-100200-
SOUTHEAST SOUTH DAKOTA

CITY           SKY/WX    TMP DP  RH WIND       PRES   REMARKS
BROOKINGS      CLOUDY    19  13  77 N5        30.18R WCI  12
CHAMBERLAIN    CLOUDY    29  20  68 CALM      30.16S
HURON          CLOUDY    26  16  65 SE6       30.19S WCI  19
MADISON        CLOUDY    21  18  86 W5        30.17S WCI  15
MITCHELL       CLOUDY    28  18  66 SE3       30.21F
SIOUX FALLS    CLOUDY    22  13  68 NW3       30.20F
WINNER         CLOUDY    34  21  59 SW6       30.14F WCI  29
YANKTON        CLOUDY    25  10  54 CALM      30.23S
$$

MNZ071-072-080-081-089-090-097-098-100200-
SOUTHWEST MINNESOTA

CITY           SKY/WX    TMP DP  RH WIND       PRES   REMARKS
FAIRMONT       CLEAR     12   5  73 NW15      30.15R WCI  -4
JACKSON        CLOUDY    18   9  68 NW17G24   30.15S WCI   2
LUVERNE        CLOUDY    21  14  73 NW8       30.20F WCI  12
MARSHALL       CLOUDY    17  10  74 NW15      30.20S WCI   2
MONTEVIDEO     CLOUDY    16   9  73 N14       30.23S WCI   1
PIPESTONE      CLOUDY    21   9  58 NW5       30.17S WCI  15
REDWOOD FALLS  CLOUDY    16   7  67 NW14      30.19S WCI   2
TRACY          CLOUDY    18  12  77 NW9       30.19S WCI   7
WINDOM         CLEAR     16   9  73 NW16      30.16S WCI   0
WORTHINGTON    CLOUDY    18   9  68 NW10      30.18S WCI   6
$$

IAZ001>003-012>014-020>022-031-032-NEZ013-014-SDZ071-100200-
NORTHWEST IOWA

CITY           SKY/WX    TMP DP  RH WIND       PRES   REMARKS
ESTHERVILLE    CLEAR     13   7  77 NW14      30.16R WCI  -2
SIOUX CITY     CLOUDY    24  14  65 NW6       30.25S WCI  17
SPENCER        CLOUDY    19   9  65 NW14      30.18S WCI   6
STORM LAKE     CLOUDY    19  12  73 NW16      30.18S WCI   5
$$

ABBREVIATIONS USED IN REMARKS
   TC - TEMPERATURE IN CELSIUS
  WCI - WIND CHILL INDEX
   HX - HEAT INDEX
  VSB - VISIBILITY





USA.gov is the U.S. government's official web portal to all federal, state and local government web resources and services.